Time,TemperatureF,DewpointF,PressureIn,WindDirection,WindDirectionDegrees,WindSpeedMPH,WindSpeedGustMPH,Humidity,HourlyPrecipIn,Conditions,Clouds,dailyrainin,SoftwareType,DateUTC
2013-07-15 00:02:00,71.0,-99.9,30.23,South,180,5.0,8.0,-999,-99.99,,,-99.99,,2013-07-15 05:02:00,
2013-07-15 00:12:00,71.0,-99.9,30.23,South,180,5.0,8.0,-999,-99.99,,,-99.99,,2013-07-15 05:12:00,
2013-07-15 00:22:00,71.0,-99.9,30.23,South,180,5.0,8.0,-999,-99.99,,,-99.99,,2013-07-15 05:22:00,
2013-07-15 00:32:00,71.0,-99.9,30.23,South,180,5.0,8.0,-999,-99.99,,,-99.99,,2013-07-15 05:32:00,
2013-07-15 00:40:00,70.0,-99.9,30.23,South,170,3.0,6.0,-999,-99.99,,,-99.99,,2013-07-15 05:40:00,
2013-07-15 01:02:00,70.0,-99.9,30.23,South,170,3.0,6.0,-999,-99.99,,,-99.99,,2013-07-15 06:02:00,
2013-07-15 01:12:00,70.0,-99.9,30.23,South,170,3.0,6.0,-999,-99.99,,,-99.99,,2013-07-15 06:12:00,
2013-07-15 01:22:00,70.0,-99.9,30.23,South,170,3.0,6.0,-999,-99.99,,,-99.99,,2013-07-15 06:22:00,
2013-07-15 01:32:00,70.0,-99.9,30.23,South,170,3.0,6.0,-999,-99.99,,,-99.99,,2013-07-15 06:32:00,
2013-07-15 01:40:00,70.0,-99.9,30.23,South,190,3.0,8.0,-999,-99.99,,,-99.99,,2013-07-15 06:40:00,
2013-07-15 02:01:00,70.0,-99.9,30.23,South,190,3.0,8.0,-999,-99.99,,,-99.99,,2013-07-15 07:01:00,
2013-07-15 02:11:00,70.0,-99.9,30.23,South,190,3.0,8.0,-999,-99.99,,,-99.99,,2013-07-15 07:11:00,
2013-07-15 02:22:00,70.0,-99.9,30.23,South,190,3.0,8.0,-999,-99.99,,,-99.99,,2013-07-15 07:22:00,
2013-07-15 02:33:00,70.0,-99.9,30.23,South,190,3.0,8.0,-999,-99.99,,,-99.99,,2013-07-15 07:33:00,
2013-07-15 03:40:00,69.0,-99.9,30.25,South,180,3.0,7.0,-999,-99.99,,,-99.99,,2013-07-15 08:40:00,
2013-07-15 04:02:00,69.0,-99.9,30.25,South,180,3.0,7.0,-999,-99.99,,,-99.99,,2013-07-15 09:02:00,
2013-07-15 04:12:00,69.0,-99.9,30.25,South,180,3.0,7.0,-999,-99.99,,,-99.99,,2013-07-15 09:12:00,
2013-07-15 04:22:00,69.0,-99.9,30.25,South,180,3.0,7.0,-999,-99.99,,,-99.99,,2013-07-15 09:22:00,
2013-07-15 04:32:00,69.0,-99.9,30.25,South,180,3.0,7.0,-999,-99.99,,,-99.99,,2013-07-15 09:32:00,
2013-07-15 04:40:00,70.0,-99.9,30.26,SSE,150,1.0,3.0,-999,-99.99,,,-99.99,,2013-07-15 09:40:00,
2013-07-15 05:02:00,70.0,-99.9,30.26,SSE,150,1.0,3.0,-999,-99.99,,,-99.99,,2013-07-15 10:02:00,
2013-07-15 05:11:00,70.0,-99.9,30.26,SSE,150,1.0,3.0,-999,-99.99,,,-99.99,,2013-07-15 10:11:00,
2013-07-15 05:22:00,70.0,-99.9,30.26,SSE,150,1.0,3.0,-999,-99.99,,,-99.99,,2013-07-15 10:22:00,
2013-07-15 05:32:00,70.0,-99.9,30.26,SSE,150,1.0,3.0,-999,-99.99,,,-99.99,,2013-07-15 10:32:00,
2013-07-15 05:40:00,68.0,-99.9,30.27,South,170,3.0,5.0,-999,-99.99,,,-99.99,,2013-07-15 10:40:00,
2013-07-15 06:02:00,68.0,-99.9,30.27,South,170,3.0,5.0,-999,-99.99,,,-99.99,,2013-07-15 11:02:00,
2013-07-15 06:11:00,68.0,-99.9,30.27,South,170,3.0,5.0,-999,-99.99,,,-99.99,,2013-07-15 11:11:00,
2013-07-15 06:22:00,68.0,-99.9,30.27,South,170,3.0,5.0,-999,-99.99,,,-99.99,,2013-07-15 11:22:00,
2013-07-15 06:32:00,68.0,-99.9,30.27,South,170,3.0,5.0,-999,-99.99,,,-99.99,,2013-07-15 11:32:00,
2013-07-15 06:40:00,72.0,-99.9,30.28,South,190,3.0,6.0,-999,-99.99,,,-99.99,,2013-07-15 11:40:00,
2013-07-15 07:01:00,72.0,-99.9,30.28,South,190,3.0,6.0,-999,-99.99,,,-99.99,,2013-07-15 12:01:00,
2013-07-15 07:11:00,72.0,-99.9,30.28,South,190,3.0,6.0,-999,-99.99,,,-99.99,,2013-07-15 12:11:00,
2013-07-15 07:22:00,72.0,-99.9,30.28,South,190,3.0,6.0,-999,-99.99,,,-99.99,,2013-07-15 12:22:00,
2013-07-15 07:33:00,72.0,-99.9,30.28,South,190,3.0,6.0,-999,-99.99,,,-99.99,,2013-07-15 12:33:00,
2013-07-15 07:40:00,75.0,-99.9,30.28,SSE,160,3.0,6.0,-999,-99.99,,,-99.99,,2013-07-15 12:40:00,
2013-07-15 08:02:00,75.0,-99.9,30.28,SSE,160,3.0,6.0,-999,-99.99,,,-99.99,,2013-07-15 13:02:00,
2013-07-15 08:11:00,75.0,-99.9,30.28,SSE,160,3.0,6.0,-999,-99.99,,,-99.99,,2013-07-15 13:11:00,
2013-07-15 08:22:00,75.0,-99.9,30.28,SSE,160,3.0,6.0,-999,-99.99,,,-99.99,,2013-07-15 13:22:00,
2013-07-15 08:33:00,75.0,-99.9,30.28,SSE,160,3.0,6.0,-999,-99.99,,,-99.99,,2013-07-15 13:33:00,
2013-07-15 08:40:00,75.0,-99.9,30.28,SE,130,5.0,6.0,-999,-99.99,,,-99.99,,2013-07-15 13:40:00,
2013-07-15 09:02:00,75.0,-99.9,30.28,SE,130,5.0,6.0,-999,-99.99,,,-99.99,,2013-07-15 14:02:00,
2013-07-15 09:11:00,75.0,-99.9,30.28,SE,130,5.0,6.0,-999,-99.99,,,-99.99,,2013-07-15 14:11:00,
2013-07-15 09:22:00,75.0,-99.9,30.28,SE,130,5.0,6.0,-999,-99.99,,,-99.99,,2013-07-15 14:22:00,
2013-07-15 09:33:00,75.0,-99.9,30.28,SE,130,5.0,6.0,-999,-99.99,,,-99.99,,2013-07-15 14:33:00,
2013-07-15 09:40:00,73.0,-99.9,30.28,SE,140,7.0,8.0,-999,-99.99,,,-99.99,,2013-07-15 14:40:00,
2013-07-15 10:03:00,73.0,-99.9,30.28,SE,140,7.0,8.0,-999,-99.99,,,-99.99,,2013-07-15 15:03:00,
2013-07-15 10:30:00,73.0,-99.9,30.28,SE,140,7.0,8.0,-999,-99.99,,,-99.99,,2013-07-15 15:30:00,
2013-07-15 10:40:00,74.0,-99.9,30.29,SE,140,7.0,8.0,-999,-99.99,,,-99.99,,2013-07-15 15:40:00,
2013-07-15 11:08:00,74.0,-99.9,30.29,SE,140,7.0,8.0,-999,-99.99,,,-99.99,,2013-07-15 16:08:00,
2013-07-15 11:15:00,74.0,-99.9,30.29,SE,140,7.0,8.0,-999,-99.99,,,-99.99,,2013-07-15 16:15:00,
2013-07-15 11:24:00,74.0,-99.9,30.29,SE,140,7.0,8.0,-999,-99.99,,,-99.99,,2013-07-15 16:24:00,
2013-07-15 11:33:00,74.0,-99.9,30.29,SE,140,7.0,8.0,-999,-99.99,,,-99.99,,2013-07-15 16:33:00,
2013-07-15 13:40:00,80.0,-99.9,30.27,SSE,150,10.0,15.0,-999,-99.99,,,-99.99,,2013-07-15 18:40:00,
2013-07-15 14:05:00,80.0,-99.9,30.27,SSE,150,10.0,15.0,-999,-99.99,,,-99.99,,2013-07-15 19:05:00,
2013-07-15 14:12:00,80.0,-99.9,30.27,SSE,150,10.0,15.0,-999,-99.99,,,-99.99,,2013-07-15 19:12:00,
2013-07-15 14:24:00,80.0,-99.9,30.27,SSE,150,10.0,15.0,-999,-99.99,,,-99.99,,2013-07-15 19:24:00,
2013-07-15 14:39:00,80.0,-99.9,30.27,SSE,150,10.0,15.0,-999,-99.99,,,-99.99,,2013-07-15 19:39:00,
2013-07-15 14:40:00,80.0,-99.9,30.27,SSE,150,10.0,15.0,-999,-99.99,,,-99.99,,2013-07-15 19:40:00,
2013-07-15 15:07:00,80.0,-99.9,30.27,SSE,150,10.0,15.0,-999,-99.99,,,-99.99,,2013-07-15 20:07:00,
2013-07-15 15:19:00,80.0,-99.9,30.27,SSE,150,10.0,15.0,-999,-99.99,,,-99.99,,2013-07-15 20:19:00,
2013-07-15 15:29:00,80.0,-99.9,30.27,SSE,150,10.0,15.0,-999,-99.99,,,-99.99,,2013-07-15 20:29:00,
2013-07-15 15:37:00,80.0,-99.9,30.27,SSE,150,10.0,15.0,-999,-99.99,,,-99.99,,2013-07-15 20:37:00,
2013-07-15 15:40:00,81.0,-99.9,30.26,SSE,150,9.0,14.0,-999,-99.99,,,-99.99,,2013-07-15 20:40:00,
2013-07-15 16:03:00,81.0,-99.9,30.26,SSE,150,9.0,14.0,-999,-99.99,,,-99.99,,2013-07-15 21:03:00,
2013-07-15 16:24:00,81.0,-99.9,30.26,SSE,150,9.0,14.0,-999,-99.99,,,-99.99,,2013-07-15 21:24:00,
2013-07-15 16:40:00,81.0,-99.9,30.25,SSE,150,8.0,12.0,-999,-99.99,,,-99.99,,2013-07-15 21:40:00,
2013-07-15 17:03:00,81.0,-99.9,30.25,SSE,150,8.0,12.0,-999,-99.99,,,-99.99,,2013-07-15 22:03:00,
2013-07-15 17:19:00,81.0,-99.9,30.25,SSE,150,8.0,12.0,-999,-99.99,,,-99.99,,2013-07-15 22:19:00,
2013-07-15 17:36:00,81.0,-99.9,30.25,SSE,150,8.0,12.0,-999,-99.99,,,-99.99,,2013-07-15 22:36:00,
2013-07-15 17:40:00,81.0,-99.9,30.24,SSE,150,7.0,12.0,-999,-99.99,,,-99.99,,2013-07-15 22:40:00,
2013-07-15 18:13:00,81.0,-99.9,30.24,SSE,150,7.0,12.0,-999,-99.99,,,-99.99,,2013-07-15 23:13:00,
2013-07-15 18:31:00,81.0,-99.9,30.24,SSE,150,7.0,12.0,-999,-99.99,,,-99.99,,2013-07-15 23:31:00,
2013-07-15 19:40:00,80.0,-99.9,30.22,SSE,160,6.0,7.0,-999,-99.99,,,-99.99,,2013-07-16 00:40:00,
2013-07-15 20:11:00,80.0,-99.9,30.22,SSE,160,6.0,7.0,-999,-99.99,,,-99.99,,2013-07-16 01:11:00,
2013-07-15 20:40:00,77.0,-99.9,30.22,South,180,3.0,8.0,-999,-99.99,,,-99.99,,2013-07-16 01:40:00,
2013-07-15 21:11:00,77.0,-99.9,30.22,South,180,3.0,8.0,-999,-99.99,,,-99.99,,2013-07-16 02:11:00,
2013-07-15 21:35:00,77.0,-99.9,30.22,South,180,3.0,8.0,-999,-99.99,,,-99.99,,2013-07-16 02:35:00,
2013-07-15 21:40:00,76.0,-99.9,30.23,South,170,5.0,7.0,-999,-99.99,,,-99.99,,2013-07-16 02:40:00,
2013-07-15 22:11:00,76.0,-99.9,30.23,South,170,5.0,7.0,-999,-99.99,,,-99.99,,2013-07-16 03:11:00,
2013-07-15 22:17:00,76.0,-99.9,30.23,South,170,5.0,7.0,-999,-99.99,,,-99.99,,2013-07-16 03:17:00,
2013-07-15 22:29:00,76.0,-99.9,30.23,South,170,5.0,7.0,-999,-99.99,,,-99.99,,2013-07-16 03:29:00,
2013-07-15 22:40:00,75.0,-99.9,30.24,SSE,160,3.0,8.0,-999,-99.99,,,-99.99,,2013-07-16 03:40:00,
2013-07-15 23:12:00,75.0,-99.9,30.24,SSE,160,3.0,8.0,-999,-99.99,,,-99.99,,2013-07-16 04:12:00,
2013-07-15 23:22:00,75.0,-99.9,30.24,SSE,160,3.0,8.0,-999,-99.99,,,-99.99,,2013-07-16 04:22:00,
2013-07-15 23:32:00,75.0,-99.9,30.24,SSE,160,3.0,8.0,-999,-99.99,,,-99.99,,2013-07-16 04:32:00,
2013-07-15 23:40:00,74.0,-99.9,30.24,South,170,3.0,7.0,-999,-99.99,,,-99.99,,2013-07-16 04:40:00,